Location: Breezy Point Observatory
(38.9725°N, 81.7133°W)
Time: 17:48:14
(UTC-04:00)

Hubble Space Telescope - Visible Passes

Search period start: 31 August 2015 00:00
Search period end: 10 September 2015 00:00
Orbit: 541 x 545 km, 28.5° (Epoch: 30 August)

Date Brightness Start Highest point End Pass type
(mag) Time Alt. Az. Time Alt. Az. Time Alt. Az.
03 Sep 3.3 06:04:11 10° S 06:04:47 10° SSE 06:05:29 10° SSE visible
04 Sep 3.1 05:54:03 10° S 05:55:43 12° SSE 05:57:28 10° SE visible
05 Sep 3.0 05:44:51 11° SSW 05:46:39 14° SSE 05:48:53 10° SE visible
06 Sep 2.8 05:36:26 14° S 05:37:35 16° S 05:40:07 10° SE visible
07 Sep 2.6 05:28:01 17° S 05:28:32 17° S 05:31:16 10° SE visible
08 Sep 2.6 05:19:37 18° S 05:19:37 18° S 05:22:21 10° SE visible
09 Sep 2.7 05:11:13 18° SSE 05:11:13 18° SSE 05:13:21 10° SE visible
